COSMOS 2485 (747)

Last updated on Aug. 13, 2020, 5:30 a.m. UTC

1 39155U 13019A   20225.48274360 -.00000006  00000-0  00000-0 0  9999
2 39155  64.7004 145.5450 0020979 236.2163 302.6399  2.13102062 56796
UTC
Height (km)
Latitude
Longitude
Inclination
Orbital Period
UTC large
Height (km)
Speed (km/s)
/
Latitude / Longitude
Inclination (degrees)
Orbital Period (minutes)
Azimuth
Elevation
Range (km)
Doppler Factor
iOS Compass Heading
iOS Angle

Next 30 passes for location: Hong Kong

Rise time Rise Azimuth (degrees) Set time Set Azimuth (degrees) Duration Max altitude (degrees)

No matching passes for this satellites